Hourly Weather Roundup
Issued by NWS Central Illinois

Home | Current Version | Previous Version | Text Only | Print | Product List | Glossary On
Versions: 1 2 3 4 5 6 7 8 9 10 11 12 13 14 15 16 17 18 19 20 21 22 23 24 25 26 27 28 29 30 31 32 33 34 35 36 37 38 39 40 41 42 43 44 45 46 47 48 49 50
000
NZUS43 KILX 230710
HWRILX

Area Weather Roundup
National Weather Service Lincoln IL
200 AM CDT WED MAY 23 2018

NOTE:  "FAIR" indicates few or no clouds below 12,000 feet, with
       no sigificant weather and/or obstructions to visibility.


CITY           SKY/WX    TMP DP  RH WIND       PRES   REMARKS
Bloomington    FAIR      58  55  90 E8        30.12S
Champaign      FAIR      61  57  87 NE7       30.10S
Danville       FAIR      57  57  99 N3        30.08S
Decatur        FAIR      59  56  89 NE5       30.09S
Effingham      FAIR      67  59  76 CALM      30.09S
Flora          FAIR      69  61  76 N3        30.07R
Galesburg      FAIR      64  58  83 E5        30.10S
Jacksonville   CLEAR     63  59  88 E6        30.09R
Lacon          FAIR      61  60  98 E7        30.09F
Lawrenceville  FAIR      70  60  70 NE7       30.06R
Litchfield     PTCLDY    66  59  77 E7        30.08S
$$


CITY           SKY/WX    TMP DP  RH WIND       PRES   REMARKS
Lincoln        FAIR      61  59  92 CALM      30.10R
Macomb         CLEAR     61  59  93 E3        30.10F
Mattoon        LGT RAIN  63  60  90 NE3       30.08S
Mt Carmel AP   FAIR      70  60  70 NE7       30.05S
Olney-Noble AP FAIR      68  61  77 N6        30.07R
Paris AP       FAIR      62  59  91 N3        30.10S
Peoria         FAIR      62  60  93 CALM      30.10R
Pontiac        FAIR      57  57  98 SE5       30.12S FOG
Rantoul        FAIR      61  58  90 NE5       30.11S
Robinson       FAIR      64  61  90 NE5       30.08S
Springfield    FAIR      65  60  84 NE5       30.09R
Taylorville    FAIR      66  59  79 E8        30.09R
$$

...REGIONAL REPORTS...


CITY           SKY/WX    TMP DP  RH WIND       PRES   REMARKS
Chicago O`Hare FAIR      53  50  89 CALM      30.10S
Kankakee       FAIR      54  53  98 CALM      30.12S
La Salle       FAIR      62  60  93 SE5       30.11S FOG
Moline         FAIR      61  59  93 E5        30.09S
Mount Sterling CLEAR     64  60  87 E5        30.08S
Mount Vernon     N/A     67  61  81 N6        30.06S
Pittsfield     PTCLDY    65  62  90 CALM      30.09S
Quincy         CLEAR     68  60  75 E7        30.07S
Rockford       FAIR      54  53  97 CALM      30.12S
$$


CITY           SKY/WX    TMP DP  RH WIND       PRES   REMARKS
Burlington     CLEAR     65  59  81 E3        30.08S
Cedar Rapids   FAIR      62  60  93 SE7       30.08R
Des Moines     PTCLDY    69  62  78 SE8       30.03F
Kirksville     CLEAR     66  62  87 SE6       30.07F
Ottumwa        CLEAR     67  61  81 SE6       30.06F
St Louis       PTCLDY    71  61  70 NE6       30.07S
$$


CITY           SKY/WX    TMP DP  RH WIND       PRES   REMARKS
Terre Haute    FAIR      63  59  87 N5        30.08S
Evansville     FAIR      73  62  68 N6        30.03F
Indianapolis   FAIR      62  56  80 NE6       30.08R
Lafayette      FAIR      56  55  97 CALM      30.10R
Madison        MOCLDY    52  52 100 CALM      30.11R FOG
Milwaukee      FAIR      54  51  90 CALM      30.09S
$$





USA.gov is the U.S. government's official web portal to all federal, state and local government web resources and services.